Location: Laporte
(40.6264°N, 105.1378°W)
Time: 16:50:16
(UTC+00:00)

Envisat - Visible Passes

Search period start: 16 August 2022 00:00
Search period end: 26 August 2022 00:00
Orbit: 763 x 765 km, 98.2° (Epoch: 15 August)

Date Brightness Start Highest point End Pass type
(mag) Time Alt. Az. Time Alt. Az. Time Alt. Az.
16 Aug 5.1 10:34:26 10° NE 10:38:37 25° E 10:42:46 10° SSE visible
17 Aug 5.9 10:00:04 10° ENE 10:01:17 11° E 10:02:30 10° ESE visible
17 Aug 3.0 11:35:47 10° N 11:40:53 82° WNW 11:45:57 10° SSW visible
18 Aug 4.1 10:59:02 10° NNE 11:03:54 44° E 11:08:43 10° S visible
19 Aug 5.4 10:23:03 10° NE 10:26:43 20° E 10:30:21 10° SE visible
20 Aug 3.2 11:23:58 10° NNE 11:29:05 78° ESE 11:34:09 10° S visible
21 Aug 4.6 10:47:24 10° NNE 10:52:01 34° E 10:56:36 10° SSE visible
22 Aug 5.6 10:11:50 10° NE 10:14:47 15° E 10:17:41 10° SE visible
23 Aug 3.6 11:12:12 10° NNE 11:17:15 60° E 11:22:15 10° S visible
24 Aug 5.0 10:35:52 10° NE 10:40:08 27° E 10:44:23 10° SSE visible
25 Aug 5.8 10:01:07 10° ENE 10:02:49 12° E 10:04:30 10° ESE visible
25 Aug 3.0 11:37:17 10° N 11:42:23 78° WNW 11:47:26 10° SSW visible
